North Myrtle Beach, SC

1:51 PM EST on February 18, 2018 (GMT -0500)
Grand Strand

Weather History for KCRE - February, 2012

Change the Weather History Date:

Tuesday, February 14, 2012

  Actual Average Record
Temperature  
Mean Temperature 48 °F 48 °F  
Max Temperature 58 °F 57 °F 78 °F (1949)
Min Temperature 37 °F 38 °F 17 °F (1955)
Degree Days  
Heating Degree Days 17 17  
Month to date heating degree days 220 255  
Since 1 July heating degree days 1418 1723  
Cooling Degree Days 0 0  
Month to date cooling degree days 0 0  
Year to date cooling degree days 0 0  
Moisture  
Dew Point 38 °F    
Average Humidity 61    
Maximum Humidity 86    
Minimum Humidity 36    
Precipitation  
Precipitation 0.00 in 0.13 in 0.75 in (2004)
Month to date precipitation 0.17 1.60  
Year to date precipitation 1.41 5.29  
Sea Level Pressure  
Sea Level Pressure 30.12 in    
Wind  
Wind Speed 3 mph (SW)    
Max Wind Speed 10 mph    
Max Gust Speed 13 mph    
Visibility 10 miles    
Events      
T = Trace of Precipitation, MM = Missing Value Source: NWS Daily Summary

Daily Weather History Graph

Daily Weather History Graph

Search for Another Location

Airport or City:

Trip Planner

Search our weather history database for the weather conditions in past years. The results will help you decide how hot, cold, wet, or windy it might be!

Date:

Astronomy

Feb. 14, 2012 Rise Set
Actual Time 7:00 AM EST 5:57 PM EST
Civil Twilight 6:35 AM EST 6:23 PM EST
Nautical Twilight 6:05 AM EST 6:52 PM EST
Astronomical Twilight 5:36 AM EST 7:21 PM EST
Moon 12:37 AM EST (2/14) 11:08 AM EST (2/14)
Length of Visible Light 11h 48m
Length of Day
10h 56m
Waning Gibbous, 50% of the Moon is Illuminated
Feb 14
Waning Gibbous
Feb 14
Last Quarter
Feb 21
New
Feb 29
First Quarter
Mar 8
Full

Hourly Weather History & Observations

Time (EST) Temp. Windchill Dew Point Humidity Pressure Visibility Wind Dir Wind Speed Gust Speed Precip Events Conditions
12:53 AM 43.0 °F - 34.0 °F 71% 30.17 in 10.0 mi Calm Calm - N/A   Clear
1:53 AM 39.0 °F - 33.1 °F 79% 30.15 in 10.0 mi Calm Calm - N/A   Clear
2:53 AM 39.9 °F - 33.1 °F 77% 30.13 in 10.0 mi Calm Calm - N/A   Mostly Cloudy
4:53 AM 39.0 °F - 33.1 °F 79% 30.14 in 10.0 mi Calm Calm - N/A   Scattered Clouds
5:53 AM 41.0 °F 39.0 °F 33.1 °F 73% 30.16 in 10.0 mi NW 3.5 mph - N/A   Overcast
7:53 AM 44.1 °F - 35.1 °F 71% 30.17 in 10.0 mi Calm Calm - N/A   Overcast
9:53 AM 50.0 °F - 37.0 °F 61% 30.17 in 10.0 mi West 5.8 mph - N/A   Overcast
10:53 AM 54.0 °F - 35.1 °F 49% 30.16 in 10.0 mi NW 5.8 mph - N/A   Overcast
11:53 AM 57.0 °F - 30.9 °F 37% 30.13 in 10.0 mi Calm Calm - N/A   Overcast
12:53 PM 54.0 °F - 39.0 °F 57% 30.11 in 10.0 mi South 4.6 mph - N/A   Overcast
1:53 PM 53.1 °F - 42.1 °F 66% 30.10 in 10.0 mi SSE 9.2 mph - N/A   Overcast
2:53 PM 55.9 °F - 39.9 °F 55% 30.08 in 10.0 mi South 8.1 mph - N/A   Overcast
3:53 PM 55.9 °F - 41.0 °F 57% 30.08 in 10.0 mi South 8.1 mph - N/A   Overcast
4:53 PM 55.0 °F - 42.1 °F 62% 30.07 in 10.0 mi South 6.9 mph - N/A   Overcast
5:53 PM 55.0 °F - 42.1 °F 62% 30.08 in 10.0 mi Calm Calm - N/A   Overcast
8:53 PM 48.9 °F - 44.1 °F 83% 30.09 in 10.0 mi Calm Calm - N/A   Mostly Cloudy
9:53 PM 46.0 °F - 43.0 °F 89% 30.10 in 10.0 mi Calm Calm - N/A   Clear
10:53 PM 48.0 °F - 44.1 °F 86% 30.10 in 10.0 mi Calm Calm - N/A   Overcast
11:53 PM 53.1 °F - 46.0 °F 77% 30.10 in 10.0 mi Calm Calm - N/A   Overcast